Torna al catalogo

COSMOS 1191 DEB

AttivoHEO
NORAD 13999·DEBRIS·🇷🇺 Russia

Lanciato Jul 2, 1980 da Plesetsk Cosmodrome

Loading…

Prossimi Passaggi (prossime 24 ore)

TLE

AggiornatoSource: Space-Track

Epoca: Sep 14, 2026, 07:28 UTC

1 13999U 80057G   26257.31146091  .00000874  00000-0  00000-0 0  9997
2 13999  62.6683 298.4761 7238997  26.2307 357.1614  2.01275469331848

Traccia COSMOS 1191 DEB in tempo reale con AllMySat

Download on the App Store